OBJECT G, 59779

Orbit data source: Space-Track

You're viewing an Uncataloged Satellite

Recently launched and/or uncataloged satellites may have evolving metadata. Metadata may include but not limited to: Owner, Maufacturer, Bus, Motor, and Mission.

OBJECT G, 59779 is a satellite owned by Byuro 1440 (CIS) in SSO that was launched on Thu, 16 May 2024 UTC via a SOYUZ-2-1B launch vehicle from the Plesetsk Missile And Space Complex (PKMTR). Unknown objects in Earth's orbit typically refer to objects detected orbiting the Earth but have not yet been identified or cataloged. These objects could be anything from previously untracked satellites, spent rocket stages, debris from satellite collisions, or even natural meteoroids temporarily captured by Earth's gravity.

Loading next visibility...
Identifier
59779, 2024-092G
Orbit
SSO
Last TLE update
8 hours ago
Origin
Manufacturer
Byuro 1440
Mission
Operational spacecraft
Bus & Motor
RASSVET-2, Unknown motor
Mass
~200 kg wet, ~200 kg dry
Launch date (UTC)
2024-05-16 (1 year ago)
Launch vehicle
SOYUZ-2-1B
Launch site
Plesetsk Missile And Space Complex (PKMTR)
Object type
Unknown
Shape & HBR
Unknown
Radar Cross Section
Large (>1 m²)

Expand to show TLE details & history

TLE from 8 hours ago
0 OBJECT G
1 59779U 24092G   25128.93584047  .00000275  00000-0  11994-3 0  9993
2 59779  98.6320 244.3755 0011365 323.1432  36.8969 14.31597730 51053
Epoch: 2025-05-08T22:27Z
Definitive object data (Epoch: 2025-05-08T22:27:36.616Z)
Latitude
-0.00003°
Longitude
40.47374°
Altitude
782.818 km
Speed
7.466 km/s
True Right ascension
16h 17m 30s
True Declination
0° 00' 00"
Sunlit
Object was in full shadow at TLE epoch
Visualization TLE readout
Latitude
-35.24035°
Longitude
46.93812°
Altitude
791.561 km
Speed
7.461 km/s
Apparent Right ascension
20h 28m 39s
Apparent Declination
-71° 07' 28"
Sunlit
Object is in full shadow
Visualization observer readout
Local Sidereal Time
14:49:47
Azimuth
156.612° SSE
Elevation
-35.754°
Doppler factor
1
Orbital elements
Apogee altitude
791.674 km
Perigee altitude
775.395 km
Semi-major axis
7,161.672 km
Eccentricity
0.0011365
Inclination
98.632°
RAAN
244.3755°
Arg. of periapsis
323.1432°
True anomaly
36.97518°
Mean anomaly
36.8969°
Eccentric anomaly
36.93603°
Mean motion
3.58114 °/min
BSTAR
0.00011994
Orbital period
100.53 mins
Loading maneuver chart data...
Loading SW <> Apogee altitude chart data...
Loading historical data...
Loading historical data...
Loading historical data...
Loading historical data...
Loading historical data...
Loading historical data...
Loading historical data...

OBJECT G Visibility forecast

Observer location: undefined°, undefined°

Span
Click to sort rows by Start time (UTC) header in descending order
Start Az.
Max El. time (UTC)
Max El. Az.
Max El.
End time (UTC)
End Az.
8 mins2025-05-09 06:58:54.688Z132.344° SE2025-05-09 07:02:54.688Z63.615° ENE32.4°2025-05-09 07:06:54.688Z4.636° NNE
6 mins2025-05-09 08:39:54.688Z229.513° WSW2025-05-09 08:41:54.688Z260.218° W21.792°2025-05-09 08:45:54.688Z315.404° NNW
8 mins2025-05-09 20:50:54.688Z4.427° NNE2025-05-09 20:54:54.688Z276.143° WNW42.092°2025-05-09 20:58:54.688Z208.14° SW
6 mins2025-05-10 06:29:54.688Z100.014° ESE2025-05-10 06:31:54.688Z71.975° E19.932°2025-05-10 06:35:54.688Z18.475° NNE
|